GFSNIL_sfc_thetae_003.txt.gz
Theta_e
293 292 290 289 288 287 286 286 285 285 284 284 284 283 283 283 283 283 282 281 281 282
289 289 287 286 286 286 285 287 284 284 283 283 283 283 282 282 282 281 281 281 281 280
287 286 286 285 285 284 284 284 283 283 283 283 283 282 282 281 282 281 281 282 280 280
285 285 284 284 283 283 283 283 283 283 282 282 282 282 281 281 282 281 281 280 280 281
284 284 283 283 283 283 283 283 282 282 282 282 282 282 281 280 281 280 280 280 280 281
283 283 282 282 283 283 283 282 282 282 281 282 282 281 281 281 281 280 280 280 280 280
283 283 282 283 283 283 282 282 281 281 281 281 281 281 281 282 281 280 281 281 281 280
283 283 283 283 283 282 282 281 281 281 281 280 281 283 284 283 281 280 279 279 280 281
283 283 283 282 282 281 280 280 281 280 279 279 282 287 289 287 282 279 278 278 279 280
284 283 282 281 281 280 279 279 279 279 278 278 278 287 288 288 281 279 278 280 280 280
283 282 281 280 279 278 278 278 278 278 278 277 279 286 287 287 280 279 278 279 279 279
282 281 280 278 277 278 277 277 278 278 277 276 277 285 286 285 279 279 278 279 279 280
280 279 278 277 277 277 277 278 277 277 277 279 276 282 285 285 281 278 279 280 280 285
279 278 277 277 276 276 276 276 275 276 275 275 277 278 285 286 282 281 281 280 280 280

GFSNIL_sfc_thetae_006.txt.gz
Theta_e
293 292 289 289 287 286 285 285 284 284 283 283 283 283 282 282 282 281 281 280 280 281
291 290 289 287 286 285 285 286 283 283 283 282 282 282 281 281 281 280 280 280 280 280
287 287 286 285 284 284 283 283 283 282 282 282 282 281 281 281 281 280 281 282 280 279
285 285 284 283 283 283 282 282 282 282 282 282 281 281 280 280 281 280 280 280 280 280
285 283 283 282 282 282 282 282 282 282 282 281 281 280 279 280 280 280 280 280 280 280
283 282 282 282 282 282 282 281 281 281 281 281 281 280 280 280 280 280 280 279 279 279
282 282 282 282 282 282 281 281 281 281 280 280 280 280 280 282 281 280 280 279 279 279
282 282 282 282 282 281 281 280 281 280 280 279 280 282 283 283 281 279 278 278 279 280
283 283 282 281 281 281 280 280 280 279 278 278 281 286 288 287 281 279 278 277 278 279
283 282 281 280 280 280 279 278 278 277 277 277 277 286 288 288 281 279 278 279 279 280
282 281 280 279 279 278 277 277 277 277 276 276 278 286 287 287 280 279 278 279 278 278
281 280 279 278 277 277 276 276 276 276 276 275 276 284 286 285 280 279 279 279 279 279
280 279 277 277 276 276 275 277 277 277 276 279 275 282 285 285 281 278 279 280 280 284
278 277 276 276 275 274 274 275 274 275 275 275 277 278 285 286 282 280 281 280 280 281

GFSNIL_sfc_thetae_009.txt.gz
Theta_e
297 296 295 294 292 292 291 290 289 289 289 288 288 288 288 289 289 288 288 286 287 287
295 295 294 292 292 291 290 288 288 288 288 288 288 288 287 288 287 287 287 287 287 286
294 294 292 291 290 289 288 288 287 287 287 287 287 287 287 287 287 286 287 287 286 286
291 290 290 289 288 287 287 287 287 287 286 286 286 286 286 286 286 286 286 286 285 285
289 288 287 287 287 287 286 287 286 286 286 286 285 285 285 285 286 285 284 284 284 284
287 287 286 286 286 286 286 285 286 286 285 284 284 284 284 285 286 285 284 284 283 283
286 286 286 286 285 285 285 285 285 285 284 284 283 284 284 286 286 285 284 284 283 283
285 286 285 285 284 284 285 284 284 284 283 283 283 284 287 287 286 285 284 284 283 284
285 285 284 284 284 284 284 283 283 282 282 282 282 286 288 288 286 285 283 283 283 284
285 284 283 283 283 283 282 282 282 281 281 281 281 286 288 288 286 284 284 283 283 283
284 282 282 282 282 282 282 281 281 280 280 280 281 285 286 287 285 284 284 284 283 283
283 282 282 281 281 281 281 280 280 280 280 280 281 284 285 286 284 283 283 284 284 283
282 282 281 280 280 279 280 280 280 280 280 281 280 283 285 285 284 282 282 283 284 284
281 280 280 279 279 279 279 279 278 279 280 280 281 281 284 285 284 283 283 282 282 283

GFSNIL_sfc_thetae_012.txt.gz
Theta_e
300 302 299 300 300 299 298 297 296 295 294 294 293 293 294 294 294 293 293 291 291 291
301 302 300 300 301 299 298 295 295 294 293 293 293 292 293 293 292 292 292 291 291 290
301 301 299 300 298 297 295 294 293 293 293 292 292 292 292 292 291 291 292 291 290 290
297 297 297 298 297 295 294 293 292 292 291 291 291 291 291 290 290 290 290 290 289 288
296 297 297 295 294 293 292 292 291 291 291 290 290 290 289 289 290 289 289 289 288 287
297 296 294 293 292 292 291 291 290 291 290 289 289 289 288 288 289 289 289 288 287 286
295 294 292 292 291 291 290 290 290 290 289 288 288 288 287 289 289 289 289 288 287 287
292 292 291 290 290 290 290 289 289 288 288 288 287 287 288 290 289 289 288 288 287 287
290 290 290 289 289 289 288 288 288 287 287 286 286 286 288 288 288 288 287 286 286 287
289 288 288 288 288 288 288 287 286 286 286 285 285 286 287 288 287 287 286 286 286 285
288 287 288 288 287 287 287 286 286 285 285 285 285 285 286 287 287 286 286 286 286 285
287 287 287 286 286 286 286 286 285 285 284 284 284 284 285 286 286 285 285 286 286 285
287 286 286 286 285 284 285 285 285 284 284 283 283 283 285 285 285 284 284 285 285 286
286 286 285 284 284 284 284 284 283 283 284 283 283 283 284 285 285 284 283 283 283 284

GFSNIL_sfc_thetae_015.txt.gz
Theta_e
312 309 304 300 298 299 298 300 299 298 298 296 296 295 295 295 295 294 294 293 293 292
308 304 302 300 300 300 300 299 298 297 296 295 295 294 294 294 293 293 293 292 293 292
302 301 301 301 300 299 298 297 296 295 295 294 294 293 293 293 292 291 292 292 291 291
300 302 299 299 298 297 297 296 295 294 293 293 293 292 292 291 291 291 291 291 291 289
299 298 298 297 296 296 295 295 294 293 292 292 291 291 290 290 290 290 289 290 290 289
296 296 296 295 294 295 294 293 292 292 292 291 290 289 290 289 289 289 290 289 288 288
295 294 294 293 294 293 292 292 292 291 290 289 289 288 288 289 290 290 290 290 289 288
295 294 293 293 292 292 292 291 291 289 289 288 288 288 288 289 289 289 288 288 288 288
293 293 292 291 290 291 290 289 289 288 287 287 287 286 288 288 287 287 287 286 286 287
291 290 290 290 290 289 289 289 288 287 286 286 286 286 287 288 286 286 286 286 286 286
290 289 289 289 289 288 288 287 286 286 286 286 286 285 286 287 286 286 286 286 286 285
289 289 288 288 287 287 286 286 285 285 285 284 285 284 285 286 285 284 285 286 286 285
289 288 287 287 286 285 286 285 285 284 285 284 283 285 285 285 284 283 283 284 285 287
288 287 286 285 285 285 284 284 284 284 284 284 284 283 284 285 284 283 283 283 283 284

GFSNIL_sfc_thetae_018.txt.gz
Theta_e
307 302 300 299 298 297 297 297 297 296 293 292 292 292 291 290 290 289 288 287 287 288
305 302 300 300 298 298 297 297 296 295 291 290 290 290 290 289 288 288 287 287 287 287
303 301 300 299 298 298 297 296 294 292 290 289 289 289 289 288 288 287 287 288 286 286
300 300 300 299 298 296 295 294 293 290 289 289 288 288 287 287 287 287 286 286 286 286
300 299 298 296 295 295 294 293 292 289 289 289 288 287 287 286 286 286 285 285 285 285
298 297 296 294 294 294 292 291 289 289 289 288 288 287 286 285 285 286 285 285 284 284
296 295 293 292 292 292 291 290 288 288 287 287 288 287 286 286 286 285 286 286 285 284
294 293 292 291 291 291 290 288 287 287 287 287 286 287 286 287 286 284 284 284 284 284
291 291 290 290 289 289 287 286 287 286 285 285 286 288 288 288 285 284 282 282 282 283
291 290 290 289 288 286 286 286 285 284 284 284 285 287 287 287 284 282 281 281 282 283
290 289 289 287 286 286 285 284 283 283 284 284 285 286 286 287 282 281 281 281 281 281
289 288 287 286 284 284 283 283 284 284 283 281 281 285 285 285 281 280 279 281 281 282
288 287 284 284 282 284 284 283 283 282 281 284 279 285 285 284 281 278 279 280 281 286
285 284 284 284 283 282 281 280 279 279 280 280 280 280 285 285 281 280 280 279 279 280

GFSNIL_sfc_thetae_021.txt.gz
Theta_e
311 306 304 304 302 301 300 299 299 297 295 294 294 291 290 289 289 288 287 286 286 287
307 303 302 301 300 301 299 299 298 296 294 293 292 290 289 288 287 286 286 286 286 286
304 303 301 299 299 299 298 297 296 294 292 291 291 288 288 287 286 286 286 287 285 285
303 301 300 299 298 298 298 296 294 293 292 291 288 287 287 286 286 286 286 285 285 285
302 301 300 298 298 297 295 295 293 293 291 289 287 286 285 285 285 285 285 285 285 284
300 299 298 296 295 295 294 292 292 291 289 288 286 285 285 285 285 285 285 284 284 283
298 296 294 294 293 293 293 291 290 289 288 287 286 286 286 287 286 285 285 285 284 283
295 295 293 293 292 292 292 290 289 287 287 285 286 287 287 287 285 284 284 284 283 283
292 292 292 291 291 290 288 287 287 286 285 284 287 291 290 287 285 284 282 281 281 282
291 290 292 289 288 287 286 286 285 285 284 284 286 289 289 288 284 281 280 280 281 282
290 289 289 289 288 287 286 285 284 283 283 284 287 288 287 287 280 280 280 280 280 279
291 289 288 286 286 286 285 283 282 283 283 282 283 286 286 284 280 280 279 280 280 281
289 288 287 286 284 283 283 283 284 281 280 284 278 286 285 284 281 278 279 279 280 285
287 285 284 283 283 283 282 280 278 278 278 278 279 279 285 285 280 280 279 279 279 280

GFSNIL_sfc_thetae_024.txt.gz
Theta_e
319 313 312 309 307 304 301 301 301 300 297 296 295 293 292 290 290 287 286 285 286 286
310 308 307 306 304 303 303 301 299 297 296 296 295 293 291 290 288 286 286 285 285 286
307 307 306 305 304 303 301 299 297 296 296 295 294 292 291 289 288 286 285 286 285 284
305 304 304 303 302 300 300 297 296 295 295 294 292 290 289 288 287 285 285 285 285 285
303 302 302 301 300 299 296 296 295 294 294 293 291 289 289 287 287 285 284 284 285 285
300 301 300 300 297 297 295 295 294 293 292 289 288 287 286 286 284 284 284 285 285 285
301 300 299 297 297 295 295 294 293 293 290 289 287 287 286 285 284 284 285 286 284 283
296 295 294 294 293 294 293 292 290 289 288 288 287 288 287 285 284 285 284 284 284 283
293 293 292 292 290 289 289 288 288 287 286 287 289 292 291 287 285 284 283 282 281 281
291 289 289 289 289 288 287 287 286 285 285 286 288 291 290 288 284 282 280 280 280 281
290 289 290 289 287 286 286 286 285 285 286 286 288 289 289 286 281 279 279 279 278 278
291 290 289 287 286 287 286 285 285 285 284 285 285 288 287 283 279 279 279 279 279 280
290 289 288 287 286 286 285 284 284 282 282 284 280 287 286 283 280 278 278 279 280 284
288 287 286 285 284 283 282 281 280 278 277 278 278 278 285 285 280 279 279 278 279 279

GFSNIL_sfc_thetae_027.txt.gz
Theta_e
322 318 316 313 313 311 308 306 302 302 300 299 297 295 295 293 290 290 289 288 288 286
321 313 313 311 311 310 308 303 301 300 297 298 297 295 294 293 289 290 287 288 288 285
315 311 310 306 305 303 302 302 299 298 297 297 296 294 293 291 289 287 288 288 287 285
306 306 305 305 303 301 301 300 299 298 297 295 294 293 291 291 289 288 287 287 285 286
303 302 302 303 301 300 299 299 298 297 296 294 293 292 290 289 288 287 287 286 286 286
300 301 301 300 300 300 298 298 297 295 293 291 291 290 289 289 288 287 286 285 285 284
299 299 300 300 299 298 297 296 294 292 290 290 289 288 288 287 286 286 286 285 285 284
298 298 299 296 295 295 294 292 290 290 289 289 289 289 287 287 286 285 284 284 284 283
294 293 292 291 290 290 290 290 290 289 288 288 290 292 290 287 285 284 283 282 282 281
291 290 289 290 290 289 288 288 287 287 288 288 290 292 290 288 284 282 282 282 281 281
290 289 290 289 289 287 287 286 286 285 285 285 287 290 289 286 282 281 280 280 279 278
291 290 289 287 286 287 286 286 286 286 285 286 286 289 289 284 280 280 279 280 279 280
290 288 287 287 287 287 286 285 286 285 284 286 283 288 287 284 280 278 279 279 279 283
289 288 287 287 286 285 284 283 281 279 278 278 279 278 285 286 280 279 279 279 279 280

GFSNIL_sfc_thetae_030.txt.gz
Theta_e
326 322 319 316 318 316 314 312 310 305 305 302 300 299 299 298 295 293 292 290 289 288
317 316 315 314 315 315 313 311 304 305 304 301 299 298 297 295 293 292 291 290 289 288
312 319 313 309 310 309 308 304 304 302 300 300 298 296 295 292 291 290 289 289 288 287
309 314 308 306 305 303 302 302 300 300 299 298 297 295 293 291 290 289 289 288 288 287
311 304 305 306 302 301 299 298 299 298 297 295 294 292 291 290 290 289 288 288 287 287
306 304 303 302 301 301 300 299 299 298 295 294 293 291 290 290 290 289 289 288 287 286
302 302 302 300 299 298 298 297 296 294 293 292 291 291 290 289 288 287 287 286 286 285
299 300 298 297 296 295 293 292 291 291 291 291 290 290 289 288 288 287 285 285 285 284
292 293 293 292 291 291 291 291 291 291 291 290 291 293 291 288 285 285 284 283 282 282
290 289 290 290 290 290 289 290 289 290 290 290 291 292 291 288 284 283 282 282 282 282
290 290 290 289 288 288 288 288 287 287 287 288 290 291 290 288 283 282 282 282 280 280
290 289 288 287 286 286 285 286 285 286 286 285 286 290 288 284 282 281 280 281 280 280
288 287 285 285 285 286 286 285 285 285 285 288 285 289 288 283 281 279 279 279 280 283
288 287 286 285 286 285 284 283 282 281 280 281 280 282 287 287 280 279 279 279 279 279

GFSNIL_sfc_thetae_033.txt.gz
Theta_e
313 325 327 325 325 324 322 321 322 318 317 315 311 309 307 305 304 302 299 297 295 294
310 315 321 322 323 324 323 320 319 315 314 312 309 307 305 304 301 299 297 296 294 293
310 312 317 318 319 319 319 317 312 311 310 308 307 305 303 301 298 295 295 292 290 289
310 312 315 313 314 314 312 310 308 307 305 304 302 302 301 299 295 292 291 290 289 288
309 311 308 309 309 307 305 304 304 302 302 301 300 299 297 294 293 291 289 290 289 288
306 307 306 305 303 303 302 301 301 300 298 297 295 294 293 291 291 291 290 289 289 288
303 304 304 303 300 300 301 300 300 298 295 294 292 292 292 291 291 289 288 288 287 287
298 299 298 296 296 296 296 294 294 293 292 292 292 291 290 290 289 287 287 286 286 285
293 293 293 292 292 292 292 292 292 291 292 292 293 294 293 289 286 285 284 283 284 284
291 291 291 291 291 290 290 291 291 291 292 291 292 293 292 290 286 285 284 284 283 283
290 290 290 289 289 289 289 289 288 289 289 289 291 293 292 289 284 283 283 283 283 283
289 288 287 287 287 287 286 286 285 286 285 286 286 290 289 285 283 282 282 282 283 283
288 287 285 285 285 286 286 285 286 285 285 288 286 288 286 283 282 281 281 282 282 283
288 287 286 285 285 285 284 284 283 283 283 283 285 287 289 286 282 282 281 281 281 282

GFSNIL_sfc_thetae_036.txt.gz
Theta_e
314 314 318 326 328 328 328 329 329 327 327 327 326 324 322 318 314 312 309 307 304 300
314 314 315 319 324 325 327 328 329 327 325 325 323 322 320 317 315 312 311 307 303 298
313 315 316 318 320 321 324 325 324 325 324 322 319 316 314 312 312 309 305 303 297 294
313 315 315 315 314 314 316 318 318 318 318 317 313 310 309 307 305 303 298 296 293 290
312 314 313 311 312 313 313 313 312 311 310 310 308 307 305 303 301 298 296 295 293 292
310 311 312 310 310 309 308 306 305 305 305 304 304 303 302 299 297 293 293 291 291 290
305 307 307 306 305 305 304 303 302 302 300 299 299 297 294 293 292 291 291 290 290 290
300 301 301 300 300 299 298 297 296 295 294 294 293 293 292 291 290 289 289 288 287 287
297 297 295 296 296 296 295 295 293 293 293 293 293 294 293 291 289 288 287 285 285 286
294 293 292 292 292 292 292 292 292 292 293 292 293 295 293 291 287 286 285 285 284 285
292 290 290 290 289 288 288 289 289 289 290 291 292 294 292 289 285 284 284 285 285 285
290 289 288 287 287 287 286 286 285 286 286 285 286 290 289 285 284 283 283 285 285 285
289 288 286 286 285 286 286 285 286 285 285 288 285 287 287 285 285 284 284 284 284 284
289 288 287 286 287 287 286 285 285 285 285 286 288 288 287 285 285 284 283 283 283 284

GFSNIL_sfc_thetae_039.txt.gz
Theta_e
314 314 315 315 319 326 327 328 331 330 327 327 328 326 326 323 323 320 316 314 310 305
314 314 315 316 317 320 323 325 327 329 327 325 326 325 323 321 319 315 314 312 310 308
313 314 316 317 317 318 320 321 323 324 323 322 323 322 321 318 316 314 312 311 309 304
312 313 315 315 315 314 314 315 316 317 317 318 318 316 313 312 311 311 308 304 301 295
311 312 313 313 312 312 311 312 311 311 311 311 311 311 309 307 305 305 300 298 296 293
307 309 309 308 309 310 309 309 307 307 305 305 304 304 304 302 300 299 297 295 293 290
303 303 304 303 304 303 304 304 302 300 298 299 296 295 295 294 293 292 292 292 291 291
300 300 300 300 300 299 299 298 298 296 295 295 294 294 293 292 291 290 289 289 289 289
297 297 296 296 296 296 295 296 296 295 294 294 294 295 294 292 290 289 287 286 286 288
294 293 293 293 292 292 292 292 292 293 293 293 294 295 294 291 288 287 285 285 285 285
292 292 291 290 290 289 289 288 288 287 288 289 292 293 292 289 285 284 284 285 285 285
291 289 289 288 288 288 287 286 286 286 286 285 286 290 290 286 285 284 284 285 285 285
289 288 287 287 286 287 287 286 286 284 285 287 285 288 287 286 285 283 284 284 284 284
290 289 288 287 287 287 286 285 285 285 285 287 288 287 287 286 284 284 283 282 282 283

GFSNIL_sfc_thetae_042.txt.gz
Theta_e
308 308 308 308 309 309 313 319 323 324 323 323 324 327 326 324 323 320 316 315 310 306
306 308 308 309 310 310 312 318 317 318 322 321 325 325 324 323 321 320 317 315 312 307
305 307 309 310 309 310 310 312 312 314 314 316 320 321 320 319 318 315 312 311 309 307
304 307 308 308 307 308 310 311 311 311 310 313 313 314 313 312 311 310 308 305 305 298
303 305 307 304 304 307 309 309 307 307 307 307 307 308 307 306 305 305 301 298 296 294
299 299 300 299 300 301 301 300 299 298 298 299 299 300 298 298 298 298 297 296 294 293
296 296 297 297 297 297 297 296 294 294 293 293 293 294 293 294 293 292 292 292 291 291
296 295 295 295 294 295 295 295 294 292 292 293 294 293 292 291 291 290 289 289 290 290
294 294 294 294 294 292 293 294 294 294 294 293 294 295 294 290 288 288 287 286 286 287
293 291 291 291 290 290 290 290 290 291 292 292 293 294 293 291 287 285 285 285 285 286
291 290 290 289 289 288 288 287 287 287 288 289 291 293 292 289 285 284 284 285 284 284
289 288 288 287 287 287 286 286 285 286 285 286 287 290 290 285 281 282 283 284 285 285
289 288 286 287 286 287 286 285 285 284 285 287 281 288 288 285 283 281 282 283 283 285
290 288 287 287 286 286 285 283 276 281 284 285 282 284 288 287 281 280 279 279 279 281

GFSNIL_sfc_thetae_045.txt.gz
Theta_e
304 305 306 306 306 307 309 313 316 317 322 321 321 323 325 320 320 317 316 315 312 310
303 304 306 307 308 308 308 312 310 312 314 319 321 319 319 322 320 318 315 314 314 311
302 304 307 306 306 306 307 308 308 308 308 310 312 315 317 317 315 316 314 312 311 307
301 303 306 303 303 304 306 305 304 305 305 305 306 307 308 308 310 310 308 307 307 301
298 299 301 299 298 299 299 297 296 297 298 299 301 302 304 303 303 303 300 300 298 295
295 295 295 295 296 296 295 294 293 293 292 293 295 296 297 297 296 297 296 296 295 293
293 293 293 294 294 294 294 292 292 292 292 292 292 292 292 292 292 292 292 292 292 291
294 293 292 292 292 292 293 294 295 293 294 294 294 293 289 288 288 288 289 289 290 291
293 293 292 292 292 292 292 293 292 292 293 291 293 294 293 289 288 287 287 286 287 288
292 291 291 291 290 290 289 289 289 290 291 291 292 293 292 290 286 286 285 285 285 285
291 290 290 289 289 288 288 287 287 287 288 290 292 293 291 289 281 282 283 283 282 283
289 289 288 288 287 287 286 285 285 286 286 286 287 290 289 283 278 278 279 281 282 282
289 288 287 286 285 286 286 285 285 284 279 286 276 289 288 284 281 279 279 280 280 285
289 288 287 286 286 285 279 276 280 282 283 280 281 283 289 287 280 278 278 278 278 280

GFSNIL_sfc_thetae_048.txt.gz
Theta_e
301 303 305 306 306 307 307 309 310 311 313 316 318 319 319 319 318 319 317 317 314 313
301 303 305 305 305 305 306 309 307 308 309 311 312 315 317 319 318 315 313 313 315 311
301 305 305 303 302 303 304 303 303 304 304 305 307 308 310 313 313 312 312 313 312 311
298 300 300 298 299 300 297 297 296 298 299 300 301 302 303 303 303 305 306 304 305 302
296 296 296 295 295 295 294 294 293 293 294 295 295 296 297 298 298 300 299 298 297 295
293 293 293 293 294 294 293 292 292 292 292 292 292 292 292 294 294 294 294 294 294 293
291 292 292 292 292 293 292 291 291 291 291 291 290 290 289 289 288 289 291 291 291 291
293 292 292 291 292 292 291 291 292 291 291 291 293 292 287 287 287 288 288 289 290 292
293 293 292 292 292 291 291 291 292 292 292 292 292 294 292 289 288 288 287 286 286 288
292 291 291 291 290 289 289 289 289 289 291 291 292 293 292 289 286 285 285 284 282 284
291 290 290 289 289 288 287 287 287 287 288 289 291 292 291 288 279 277 276 276 275 276
290 289 289 287 286 286 285 285 285 286 286 286 282 289 288 281 273 275 276 279 280 280
289 288 287 286 285 286 285 285 282 277 274 284 274 289 287 283 280 278 278 278 279 286
289 287 287 286 286 282 281 282 282 283 283 278 280 282 288 286 280 278 278 278 279 280

GFSNIL_sfc_thetae_051.txt.gz
Theta_e
300 302 304 304 305 305 305 306 307 307 309 310 313 316 316 316 316 316 318 316 313 311
300 302 303 302 303 303 303 307 304 304 305 306 308 310 316 319 317 317 315 316 315 311
299 301 300 300 300 300 298 298 299 300 300 301 302 304 306 307 308 309 309 309 310 310
296 297 296 296 296 295 294 294 294 295 295 296 296 297 299 299 300 301 302 301 301 298
294 295 294 294 293 293 292 292 292 293 292 292 293 293 293 294 294 295 294 297 297 295
292 292 292 292 292 292 292 291 291 291 291 290 290 290 290 290 291 292 292 292 291 291
290 291 290 291 291 292 291 291 290 290 290 291 289 288 288 288 287 288 290 290 290 290
292 292 292 292 293 292 290 290 290 290 292 293 292 292 288 289 289 289 289 289 289 291
293 293 292 292 292 292 291 291 292 292 291 292 292 293 292 290 288 287 287 286 286 288
292 291 291 291 290 289 289 290 289 290 291 291 291 293 291 289 286 285 281 279 278 284
291 290 290 289 288 288 288 287 288 288 287 286 290 291 290 287 277 277 278 277 272 273
290 289 289 287 286 286 286 286 285 286 283 278 279 289 288 280 273 275 275 278 278 279
290 289 287 286 285 286 286 284 280 277 274 284 274 288 287 281 279 276 277 277 278 285
289 287 287 286 286 285 283 283 280 279 276 276 280 281 287 287 280 278 278 278 279 280

GFSNIL_sfc_thetae_054.txt.gz
Theta_e
300 301 303 304 304 304 304 305 305 305 305 306 309 311 318 319 319 318 318 318 316 315
300 301 302 301 302 302 300 303 301 301 302 302 304 306 314 315 314 316 314 314 314 313
297 298 298 299 298 296 295 295 296 296 297 297 298 300 303 306 308 307 306 306 304 303
295 295 295 294 293 293 293 293 293 294 294 294 293 294 296 297 298 301 299 298 297 297
293 293 292 292 292 292 291 291 291 292 291 291 291 291 291 292 292 292 292 293 295 293
291 290 290 290 291 291 291 290 291 290 289 289 289 288 288 288 289 289 289 289 288 288
289 290 290 290 290 291 290 289 289 290 292 290 288 288 289 289 289 290 290 291 292 291
291 291 291 293 293 291 290 290 292 292 292 292 292 291 289 290 290 289 288 288 290 291
293 293 293 292 292 292 291 292 292 292 291 291 292 293 292 290 287 286 285 285 284 287
292 291 291 291 290 290 289 290 290 290 291 290 291 292 291 289 284 279 277 277 277 282
291 291 290 289 288 288 288 288 288 287 284 285 289 291 289 286 274 277 278 273 271 272
291 290 289 288 287 287 287 286 285 283 279 278 278 288 287 279 272 275 275 277 278 279
290 289 287 286 286 286 286 284 282 277 275 283 274 288 286 281 278 276 277 277 279 285
290 288 287 286 286 285 282 277 274 274 274 275 279 280 287 286 280 279 278 278 279 280

GFSNIL_sfc_thetae_057.txt.gz
Theta_e
305 306 307 309 309 309 308 309 307 308 308 309 310 313 318 321 321 320 319 319 319 318
306 306 307 306 307 305 303 304 303 303 304 304 306 309 314 315 315 312 312 313 314 313
302 303 303 304 301 300 299 299 299 300 300 300 301 304 308 309 309 307 307 307 307 306
299 299 299 298 297 297 297 297 297 297 297 297 297 299 301 302 302 301 301 301 301 300
297 297 296 296 295 296 295 295 295 295 294 294 295 295 297 296 296 296 296 296 296 295
295 295 294 294 294 295 294 294 294 294 293 292 292 292 293 293 293 293 293 293 293 293
293 293 294 294 294 294 293 293 293 294 293 291 291 291 291 292 292 292 292 293 294 293
293 293 294 294 293 293 293 293 293 293 293 293 292 291 291 291 291 290 290 290 291 292
294 294 294 294 293 293 293 293 293 292 292 292 293 293 293 291 289 288 287 287 287 288
293 293 292 292 291 291 291 291 291 291 291 291 292 292 291 289 285 283 283 284 285 285
292 292 291 290 289 289 290 289 289 288 288 290 291 291 289 285 281 281 281 281 281 284
292 291 290 288 288 288 288 287 286 285 284 284 286 289 287 283 281 281 281 282 284 285
291 290 288 288 287 288 287 286 284 282 281 285 283 288 286 283 282 280 281 282 283 286
291 289 288 287 287 286 285 283 281 281 280 281 284 284 288 286 282 282 281 282 282 283

GFSNIL_sfc_thetae_060.txt.gz
Theta_e
311 313 313 313 314 315 315 314 313 313 313 313 314 315 318 320 322 323 323 322 322 321
312 311 311 312 313 313 311 309 309 309 309 309 310 312 316 318 318 317 315 314 313 311
309 310 311 311 310 308 307 306 306 306 306 306 307 309 312 312 311 311 311 311 309 307
307 307 308 308 307 305 304 303 303 303 303 303 304 306 309 306 305 305 304 305 304 303
305 304 305 304 303 303 302 302 301 301 301 301 301 303 304 303 303 303 302 302 302 301
302 302 303 302 301 301 301 300 300 299 299 298 298 299 300 300 299 299 299 299 298 298
301 301 301 300 300 300 299 299 299 298 297 296 295 295 295 296 296 296 296 296 296 296
299 299 298 298 298 298 298 298 297 295 295 295 294 294 294 294 294 293 293 293 293 294
298 298 298 297 295 295 295 294 294 294 294 294 294 295 294 293 293 293 292 291 291 291
297 296 295 295 293 293 293 293 293 293 293 293 293 293 292 291 290 289 287 288 288 288
296 294 294 292 291 291 291 291 291 291 292 292 292 291 289 287 286 286 285 286 286 288
295 293 291 290 290 290 290 289 289 289 289 289 290 289 287 286 287 286 285 286 287 288
294 292 290 290 288 289 289 287 288 286 287 288 289 288 287 286 285 283 284 284 286 286
293 292 290 289 288 288 287 286 286 286 285 286 288 288 287 285 284 284 283 284 284 285

GFSNIL_sfc_thetae_063.txt.gz
Theta_e
314 314 314 314 314 314 314 315 315 314 314 314 314 314 316 318 320 321 322 322 322 322
313 313 312 314 314 314 313 311 310 310 310 311 311 311 313 316 316 318 316 313 312 310
311 312 312 312 312 311 310 308 308 308 308 308 308 309 311 312 312 312 311 311 309 308
309 309 310 310 309 308 307 306 305 305 305 305 305 307 309 308 307 307 306 306 305 304
308 307 307 307 306 306 305 304 303 303 302 302 303 304 305 305 305 305 304 304 304 303
305 305 305 305 304 304 303 303 302 301 300 300 300 301 301 302 301 301 301 300 300 299
303 303 303 303 302 302 302 301 301 300 299 298 297 297 297 298 298 297 297 297 297 297
301 301 301 300 300 300 300 300 299 297 297 296 296 295 295 296 296 295 294 294 294 294
300 300 299 299 298 297 297 296 296 295 295 295 295 295 295 295 294 294 293 291 292 292
300 299 298 298 296 295 294 294 294 294 294 294 294 295 294 294 292 290 289 288 289 288
299 297 296 295 293 293 293 292 292 292 293 293 292 292 291 290 287 286 286 286 286 287
298 296 295 293 292 291 291 290 289 291 291 290 290 290 288 287 286 286 285 286 287 288
297 295 293 292 289 290 289 287 288 287 288 290 289 289 287 287 285 284 283 284 286 287
296 294 293 290 289 289 287 286 287 286 286 287 288 288 288 286 284 283 282 283 283 284

GFSNIL_sfc_thetae_066.txt.gz
Theta_e
311 310 310 310 310 309 309 309 309 309 309 309 309 309 310 311 313 315 315 313 314 315
310 310 308 310 309 308 307 307 304 306 305 306 306 307 308 309 310 312 311 312 311 310
309 309 309 309 307 307 304 304 303 303 303 303 304 305 305 307 309 309 309 309 308 307
305 307 307 307 305 304 303 302 301 301 301 301 301 301 302 306 306 306 305 305 304 303
304 303 304 304 303 302 302 301 300 299 299 299 299 299 299 300 301 304 303 303 303 301
302 302 302 301 301 301 300 299 299 298 297 296 296 296 296 297 297 296 295 296 295 295
299 300 299 300 300 300 299 298 298 297 296 295 294 294 295 295 294 294 294 294 293 293
297 297 298 298 297 298 297 296 296 295 295 296 295 295 295 296 295 294 293 293 293 293
297 296 296 295 295 294 294 294 294 295 295 294 295 295 296 295 294 293 292 290 288 289
297 296 295 296 296 292 291 293 293 293 294 293 294 296 295 295 291 289 287 287 285 286
296 295 294 295 294 291 293 292 292 292 292 292 292 294 293 292 287 285 284 284 284 282
295 293 293 293 290 291 291 290 290 291 290 289 289 291 290 285 282 283 282 283 284 286
294 293 293 292 289 290 290 288 288 287 287 290 286 290 289 286 283 282 282 282 284 287
293 293 292 288 288 289 288 287 286 286 285 284 286 286 289 288 282 281 280 280 280 282

GFSNIL_sfc_thetae_069.txt.gz
Theta_e
312 311 311 310 309 308 309 309 310 310 309 307 307 307 308 308 309 311 311 311 311 314
309 309 309 309 310 308 308 307 306 306 306 305 305 305 305 306 307 308 309 311 308 310
308 309 309 308 308 307 305 305 303 303 303 302 302 303 303 304 305 305 305 306 307 307
306 307 307 306 306 304 303 303 302 301 300 300 299 300 300 302 303 303 302 302 304 304
304 304 303 303 303 303 300 301 300 299 299 298 298 297 297 299 299 301 302 302 303 301
301 301 301 301 301 301 299 298 298 298 297 296 296 295 295 296 296 295 295 297 297 297
298 298 298 298 299 298 298 297 296 296 295 295 294 294 294 294 293 293 293 292 292 292
297 297 296 296 296 296 296 295 295 294 294 294 294 295 293 295 295 294 293 293 294 293
296 295 295 294 294 293 293 292 293 293 294 294 295 296 297 296 294 293 292 290 290 290
295 295 294 294 293 291 290 290 290 292 294 293 294 296 297 296 292 290 288 287 285 285
295 294 293 293 292 293 289 289 289 291 293 292 293 295 295 293 287 286 286 284 281 280
295 293 292 291 290 291 288 288 290 291 291 289 290 293 293 287 284 281 280 282 284 285
294 293 290 290 291 289 289 289 289 287 288 291 288 292 290 285 282 280 281 282 283 289
293 291 290 290 290 288 288 288 287 286 286 287 288 287 290 289 283 281 281 280 281 282

GFSNIL_sfc_thetae_072.txt.gz
Theta_e
319 315 316 315 314 314 313 314 314 311 310 309 309 309 308 307 307 307 308 308 309 310
313 312 311 311 310 310 309 310 310 309 308 306 305 305 305 305 304 306 307 308 309 310
306 307 309 310 309 308 306 305 304 303 303 303 303 303 303 302 303 303 304 305 304 303
306 307 307 306 306 305 303 302 302 302 301 301 300 300 299 299 302 301 301 300 301 302
304 305 304 304 304 302 301 301 301 299 299 298 298 298 298 298 301 300 300 301 300 300
301 301 300 300 300 300 299 299 298 298 297 296 296 296 295 296 296 295 295 296 298 298
298 298 298 298 298 298 297 296 296 295 294 295 294 294 293 294 292 292 292 292 292 293
297 297 297 296 296 296 296 295 294 293 293 293 293 294 292 293 293 294 294 294 293 293
296 295 295 294 293 293 292 292 292 292 292 292 294 297 297 296 295 294 293 291 290 291
295 294 293 293 292 291 290 290 290 290 291 291 293 297 297 298 293 291 290 288 287 288
294 293 292 292 291 289 288 288 288 288 289 290 293 297 296 295 288 287 286 286 285 280
294 292 291 290 289 289 288 287 287 288 289 290 291 296 295 290 286 286 285 285 283 283
294 293 291 290 288 288 290 288 288 287 288 291 289 294 293 288 284 283 282 283 284 290
293 292 291 289 288 288 289 288 287 287 287 288 289 290 292 289 281 281 280 281 282 283

GFSNIL_sfc_thetae_075.txt.gz
Theta_e
323 323 323 321 320 318 317 315 315 313 311 310 310 310 308 308 306 306 306 305 306 308
315 316 314 314 315 312 312 313 311 309 308 307 306 305 305 304 304 304 305 306 306 307
306 309 311 310 308 309 309 310 308 306 305 304 304 302 302 301 303 304 304 304 303 302
304 305 306 307 306 304 304 303 304 304 303 301 301 299 298 299 300 301 300 300 300 300
304 304 304 305 305 303 303 302 302 301 299 298 298 297 297 297 298 299 299 299 299 300
300 301 301 301 301 301 300 299 298 298 297 296 296 296 295 295 296 295 295 295 297 297
298 298 298 298 298 298 297 296 295 295 295 294 293 293 292 293 292 291 291 291 292 295
297 297 297 296 296 295 295 295 294 293 292 292 292 293 291 292 291 292 294 293 293 294
296 296 295 294 293 293 293 292 292 291 291 291 293 297 298 297 294 295 294 292 292 293
295 294 293 293 292 291 290 290 289 289 290 290 290 297 298 298 294 293 291 290 288 288
294 293 292 291 290 289 288 288 288 288 289 289 290 296 298 297 289 287 287 287 286 286
294 292 291 290 289 288 287 287 287 287 287 287 287 295 297 291 287 286 286 286 285 284
294 293 291 290 288 288 287 287 286 287 286 290 288 295 295 292 287 286 285 285 284 288
293 292 291 289 287 287 287 287 288 288 287 288 290 290 295 294 283 283 283 282 281 282

GFSNIL_sfc_thetae_078.txt.gz
Theta_e
321 322 322 322 321 322 322 320 319 316 313 311 311 311 310 309 307 307 306 306 305 307
312 316 317 316 318 318 317 317 316 313 310 309 308 307 306 305 304 304 303 304 304 305
305 309 313 312 311 312 310 311 308 307 307 306 305 304 303 302 302 302 302 304 303 303
304 305 307 307 307 306 307 308 306 305 303 303 302 301 301 300 300 300 300 299 299 300
302 303 303 303 303 303 303 303 303 302 301 300 299 298 297 296 297 298 298 298 298 298
300 300 300 301 301 301 300 299 299 299 298 297 296 295 294 294 294 294 293 293 294 295
298 299 298 298 298 298 297 296 296 295 295 294 293 293 292 292 291 290 291 291 291 293
297 296 296 296 296 296 295 294 294 293 292 292 292 293 291 292 291 291 292 294 294 294
296 296 295 295 294 293 293 292 291 291 291 291 293 297 298 295 291 293 294 293 292 294
295 295 294 293 292 291 290 290 290 289 290 290 290 297 298 298 292 290 292 291 289 289
295 294 293 291 291 289 288 289 288 288 289 289 290 296 297 297 290 287 287 288 287 287
294 293 291 290 289 288 287 287 287 287 287 287 287 295 297 292 287 287 287 287 287 287
294 293 292 291 289 287 287 287 286 287 286 289 285 294 296 292 288 286 287 286 285 289
293 293 293 289 287 287 287 286 285 287 288 289 288 288 296 296 287 287 285 285 284 284

GFSNIL_sfc_thetae_081.txt.gz
Theta_e
323 326 326 325 325 325 325 325 325 324 322 319 318 317 316 314 313 313 314 313 312 313
314 320 321 322 324 323 323 320 322 321 319 315 314 311 310 309 309 309 309 310 310 310
308 310 316 318 318 318 318 318 316 312 311 309 308 308 307 307 307 307 307 308 309 309
307 307 310 313 312 313 313 313 311 310 308 307 306 306 306 305 304 304 305 305 305 305
305 307 308 309 309 309 309 310 310 308 306 304 303 303 303 302 302 303 303 302 303 303
304 305 305 305 305 305 305 305 304 304 302 301 300 298 298 298 298 298 298 298 299 300
302 303 303 302 302 302 301 300 300 300 299 298 297 297 297 296 296 296 296 296 297 297
300 301 301 301 300 300 299 299 298 297 297 297 296 296 296 296 296 296 296 296 297 297
299 300 299 299 298 298 297 297 296 296 296 296 295 298 298 297 296 296 296 296 296 296
297 298 298 298 297 296 296 295 295 295 295 295 296 299 300 299 296 295 295 294 293 292
297 297 297 296 296 295 294 294 294 294 294 294 294 298 299 299 296 292 289 290 290 290
296 296 295 295 294 294 293 292 292 292 292 292 293 297 298 295 289 290 289 291 291 290
295 295 295 295 293 292 292 291 291 289 290 292 291 295 297 295 291 289 289 289 288 291
294 294 294 293 292 291 291 290 289 289 288 290 291 292 296 297 291 290 288 288 287 287

GFSNIL_sfc_thetae_084.txt.gz
Theta_e
330 330 328 329 329 329 328 328 329 328 328 329 329 326 324 323 322 321 320 318 318 317
318 326 328 329 330 330 330 329 328 327 329 327 324 322 321 318 314 314 314 315 314 313
311 313 318 323 324 326 328 328 327 325 326 322 320 319 317 313 311 311 312 312 312 312
311 311 313 316 319 320 321 322 322 321 317 316 315 314 313 311 309 309 310 309 311 310
310 311 311 312 313 315 318 318 317 316 314 312 311 310 308 307 307 307 306 307 308 308
309 310 310 310 310 310 311 313 314 313 311 309 307 307 306 305 304 305 306 305 305 305
306 308 309 309 309 308 309 309 309 309 307 305 305 304 304 304 303 303 303 302 303 303
304 306 307 308 308 307 307 306 306 305 304 303 302 301 302 302 302 301 301 301 301 302
303 304 305 306 306 306 305 304 304 303 303 302 300 300 301 302 301 301 300 299 300 300
301 301 303 304 304 304 304 303 302 302 302 300 301 300 300 300 300 300 299 299 298 298
299 299 301 302 302 303 303 302 301 301 301 301 300 300 300 299 300 298 294 293 294 296
298 298 299 300 301 303 301 301 300 301 300 299 299 299 300 299 297 294 292 292 296 297
298 298 298 299 300 301 300 299 299 296 298 298 298 298 299 298 295 292 291 295 295 294
297 297 298 298 299 298 298 297 296 294 293 296 297 297 298 298 294 293 291 291 292 293

GFSNIL_sfc_thetae_087.txt.gz
Theta_e
327 327 325 326 326 326 326 326 328 329 328 329 328 326 325 324 323 322 322 322 322 320
324 328 328 327 328 328 329 330 329 329 328 329 327 326 325 322 321 322 321 320 317 315
312 313 319 326 328 329 329 330 328 327 327 327 326 323 323 319 318 317 316 315 313 312
311 312 313 316 319 322 325 326 325 325 325 322 320 321 320 317 315 314 312 312 312 311
311 312 312 312 314 316 318 320 322 322 320 318 317 318 317 314 312 311 309 309 310 310
308 310 310 311 311 312 313 316 317 317 315 313 313 313 312 309 308 308 308 308 307 307
304 305 308 310 310 309 310 311 313 314 313 310 308 308 306 306 306 306 305 305 305 305
303 305 305 308 309 309 308 308 309 309 307 306 304 303 303 304 303 303 302 302 302 303
302 303 304 305 307 308 307 306 306 305 305 304 302 302 303 303 302 302 301 300 301 300
301 301 302 303 304 305 306 306 305 305 304 303 303 301 302 302 302 301 300 299 299 298
299 299 300 301 302 303 305 305 305 304 303 303 302 301 301 301 300 299 297 296 296 297
297 297 299 299 300 302 303 303 303 303 302 301 301 300 301 299 297 293 292 293 294 296
296 296 296 297 298 298 300 301 302 300 300 301 300 299 300 300 297 293 292 294 295 297
294 295 296 296 297 297 297 298 298 298 297 298 299 299 300 300 297 293 292 293 293 294

GFSNIL_sfc_thetae_090.txt.gz
Theta_e
324 323 323 321 321 323 323 323 323 326 326 327 326 327 325 323 322 322 320 319 320 319
323 323 324 324 324 324 324 325 324 325 325 324 324 325 325 323 322 321 320 319 320 317
310 313 315 320 324 325 325 325 326 324 326 325 325 326 324 323 322 320 318 317 315 312
308 309 309 310 313 317 320 321 323 324 323 323 325 325 322 320 317 317 314 312 312 311
306 307 307 308 309 310 311 315 317 320 322 321 321 321 320 317 316 315 312 310 308 308
301 302 304 306 307 307 308 309 312 315 316 316 315 316 317 315 312 311 308 307 307 306
299 300 301 303 305 306 306 306 307 310 312 311 310 309 309 307 306 305 304 304 305 305
299 299 300 301 302 305 304 304 305 306 305 305 305 305 304 304 304 303 303 304 303 303
298 298 298 299 300 301 303 302 302 302 302 301 302 304 304 304 302 302 301 300 300 299
297 297 297 298 298 299 299 301 300 300 300 300 299 303 304 303 301 300 299 298 298 297
294 294 295 296 296 296 297 298 299 299 299 298 299 302 302 302 297 296 294 293 293 293
293 292 293 294 295 297 297 298 299 299 299 297 296 301 301 299 292 291 292 293 294 294
291 291 292 294 294 295 296 296 298 298 298 298 297 300 301 298 294 292 292 293 293 296
289 289 289 290 291 294 295 295 296 296 296 297 298 298 301 301 295 293 292 291 291 293

GFSNIL_sfc_thetae_093.txt.gz
Theta_e
323 323 321 319 320 322 323 324 324 325 324 325 327 326 324 324 323 323 322 322 321 320
314 322 321 322 320 320 323 323 323 323 324 324 326 324 324 322 322 322 322 321 320 319
310 314 315 317 320 322 323 324 324 323 323 323 324 324 324 323 322 321 321 320 318 318
306 307 309 309 311 315 318 319 320 322 323 323 323 323 323 322 322 320 320 318 318 316
302 302 304 305 306 307 307 310 313 315 318 321 322 323 323 322 321 319 317 315 315 314
299 299 300 301 304 305 305 306 308 311 312 315 317 317 319 320 318 317 317 315 314 313
297 298 299 300 301 302 304 303 304 306 308 309 310 312 314 313 311 312 311 310 311 310
297 297 298 298 299 300 301 302 303 303 304 304 304 305 306 307 307 306 305 307 307 307
295 296 296 296 297 297 298 299 300 300 301 301 302 303 305 305 304 304 304 303 303 304
293 293 294 295 295 295 295 296 296 297 298 298 299 302 304 304 302 301 301 300 300 299
291 291 292 292 293 293 295 296 296 296 299 299 298 302 303 303 297 297 297 296 297 296
289 289 290 290 290 292 294 295 296 297 298 299 299 300 302 300 293 292 291 292 295 296
288 288 288 287 288 289 291 293 295 296 297 298 298 300 301 300 294 292 292 294 293 297
287 286 286 286 286 287 287 289 290 292 293 296 297 298 300 301 296 294 293 293 292 293

GFSNIL_sfc_thetae_096.txt.gz
Theta_e
315 322 321 321 322 322 322 322 324 324 324 324 325 325 325 324 324 324 324 323 320 320
312 317 320 320 320 320 322 323 323 323 323 324 324 325 325 324 322 322 322 322 322 320
308 310 312 315 316 319 321 322 322 322 322 322 323 323 324 322 322 321 321 321 320 320
303 305 307 308 308 309 312 315 317 319 321 322 322 322 322 322 322 320 320 319 318 318
300 300 301 301 303 305 305 306 307 311 314 318 321 322 321 321 321 320 319 319 318 317
297 298 298 299 300 301 302 303 304 306 308 310 312 316 319 321 321 320 320 319 317 317
295 296 297 297 298 299 300 300 301 302 304 305 306 308 310 314 314 315 317 317 316 316
294 294 295 296 296 297 297 298 299 300 300 301 302 303 304 307 309 310 310 309 310 311
292 293 293 293 294 294 295 295 296 296 297 298 300 303 304 304 304 305 306 306 306 307
290 290 290 291 292 292 291 292 292 294 295 296 297 302 303 303 301 302 302 302 301 301
288 288 288 289 288 289 290 291 292 293 294 296 298 301 302 302 298 296 296 298 298 298
287 286 286 286 286 287 288 288 290 292 292 294 296 299 301 300 296 293 292 292 295 298
286 285 285 285 285 286 286 287 289 290 290 294 294 297 299 300 297 294 293 294 292 298
285 284 283 283 284 283 284 284 284 286 286 288 292 294 297 299 298 296 294 294 293 294

GFSNIL_sfc_thetae_099.txt.gz
Theta_e
313 317 322 321 322 323 322 323 324 325 326 325 325 325 323 322 322 322 323 322 322 322
310 310 312 314 318 319 320 323 322 322 322 323 324 324 322 322 322 323 322 322 322 321
305 306 307 308 308 309 312 315 320 320 321 321 322 322 323 322 322 322 322 322 321 321
301 302 303 303 304 306 307 308 310 313 316 318 321 322 322 322 322 320 320 320 320 320
298 299 299 299 299 301 301 304 305 306 308 311 314 318 320 320 321 320 319 319 318 318
295 296 296 297 298 299 299 300 301 302 303 304 306 308 311 315 318 320 320 320 319 318
293 293 294 295 296 297 297 297 297 298 300 301 302 303 304 306 309 312 314 317 318 318
291 292 292 292 293 294 295 295 295 296 296 297 299 301 301 302 302 304 307 311 311 313
289 289 289 290 290 291 291 292 293 293 294 294 297 300 303 302 300 300 303 304 307 308
287 287 287 288 288 287 288 289 289 291 292 293 294 300 300 301 300 298 298 300 301 302
286 285 285 285 285 285 286 286 287 288 290 291 293 296 298 299 297 298 296 294 296 299
285 284 284 284 283 284 285 284 285 287 288 287 289 295 295 296 296 295 294 296 296 297
284 284 283 283 282 283 283 284 285 285 285 288 286 292 294 295 295 295 295 297 295 297
283 282 282 281 281 281 281 281 281 282 283 283 286 287 292 293 292 293 294 295 295 295

GFSNIL_sfc_thetae_102.txt.gz
Theta_e
311 312 313 313 319 320 319 321 324 325 325 325 326 325 324 323 323 323 323 323 322 322
306 307 308 309 310 310 311 313 315 321 322 322 324 325 324 323 321 322 321 322 321 321
303 303 303 304 304 305 307 308 309 311 314 317 320 322 322 322 322 321 321 321 320 321
299 300 300 299 300 301 302 303 304 306 308 310 312 315 319 321 321 320 320 320 320 320
296 296 297 297 298 298 298 299 300 301 303 304 305 307 309 311 315 319 319 319 319 319
293 293 293 294 296 296 296 296 297 298 298 299 300 302 303 305 306 309 311 316 318 318
290 290 291 292 292 293 294 293 294 295 295 296 297 299 300 301 301 302 304 307 310 313
289 289 289 289 289 289 290 290 292 292 293 294 295 297 298 299 299 299 300 302 304 308
287 287 286 286 287 287 287 288 288 288 290 291 293 296 297 298 297 298 298 298 300 302
285 285 284 285 284 284 284 285 285 286 287 289 290 294 295 295 296 296 296 296 296 298
284 284 284 284 283 282 283 283 283 284 286 287 288 292 293 295 293 294 294 293 294 296
283 282 282 282 282 282 282 282 282 284 284 283 284 290 292 291 289 291 292 294 294 294
282 281 280 280 279 280 281 281 282 282 283 285 283 288 291 290 287 287 289 293 293 296
280 279 279 279 279 279 280 280 279 280 281 281 283 283 290 290 286 286 286 288 291 293

GFSNIL_sfc_thetae_105.txt.gz
Theta_e
308 308 307 308 309 310 310 312 314 315 321 324 325 325 325 325 324 324 323 322 322 322
304 303 302 303 304 306 307 309 310 311 312 314 316 318 323 324 323 323 322 323 323 322
300 301 301 301 300 301 302 303 304 306 308 309 310 310 313 318 321 321 322 322 322 322
297 298 299 298 298 298 299 299 300 301 302 303 304 306 307 309 311 312 318 320 320 320
293 293 294 294 295 296 295 296 296 297 297 298 300 302 303 303 305 305 307 309 314 318
291 291 291 291 292 293 293 293 294 295 295 295 296 298 300 301 301 302 303 304 306 308
289 289 290 290 290 290 291 291 291 292 292 294 295 296 297 298 299 300 301 302 303 305
289 289 288 288 288 288 289 290 290 290 290 291 293 293 295 295 295 296 297 299 300 302
287 287 287 287 287 287 287 288 288 288 288 289 290 293 294 294 293 293 294 294 297 299
285 285 285 286 285 285 285 286 286 286 287 287 288 291 293 293 293 292 292 293 294 295
284 284 284 284 284 284 285 285 285 286 286 287 288 290 291 292 291 291 291 293 293 294
283 283 283 283 283 283 283 284 284 285 285 285 286 289 290 290 290 289 289 290 291 292
283 282 282 282 282 283 283 282 284 283 284 285 286 287 289 290 289 287 287 288 289 291
282 281 281 281 281 281 281 281 281 282 283 283 285 286 289 290 288 287 286 286 286 288

GFSNIL_sfc_thetae_108.txt.gz
Theta_e
307 307 305 305 306 306 307 308 309 310 312 314 316 317 318 322 325 326 325 324 324 323
304 302 302 302 303 303 303 304 305 306 307 308 310 310 312 314 316 321 323 323 323 323
299 300 300 299 299 299 299 300 301 301 302 303 304 306 307 308 309 310 312 316 320 322
294 296 296 297 296 296 297 297 297 298 298 299 300 303 303 304 305 305 306 308 309 310
292 291 292 292 292 293 293 293 294 294 295 295 296 298 299 300 302 302 302 303 305 305
291 291 290 290 291 291 292 292 293 293 293 293 295 296 296 296 297 298 299 300 301 303
290 290 290 291 291 290 291 291 291 291 291 292 292 293 294 295 295 296 296 298 299 300
291 291 290 290 290 289 290 290 290 290 290 290 291 291 292 293 293 294 294 295 296 298
289 288 288 288 287 287 287 287 288 288 288 288 289 291 292 292 291 292 291 292 293 294
287 287 287 287 287 287 287 287 287 288 288 288 289 290 292 292 291 291 291 291 291 292
286 286 287 287 286 287 287 287 287 287 287 288 288 290 291 291 291 291 291 291 291 291
286 286 286 285 286 286 286 286 286 286 286 286 287 289 290 290 290 289 289 290 290 290
286 285 285 285 285 285 285 285 286 285 286 287 287 288 289 290 289 288 288 289 289 290
285 284 284 284 285 285 284 284 285 285 286 286 288 288 289 289 288 287 287 287 287 288

GFSNIL_sfc_thetae_111.txt.gz
Theta_e
305 305 305 305 306 305 305 305 306 308 309 309 310 311 312 316 315 315 322 324 325 324
303 301 300 300 301 300 301 301 302 303 303 304 305 307 308 309 308 309 312 313 311 316
296 297 298 298 296 296 297 298 298 299 299 300 301 303 304 305 305 305 306 307 307 309
293 293 293 293 294 294 295 294 294 295 296 296 296 298 299 299 301 301 302 303 304 305
292 292 291 291 291 292 292 293 293 293 293 293 294 296 296 295 296 297 297 298 300 301
292 291 291 291 291 291 291 291 291 291 291 291 292 293 293 294 294 295 296 297 297 298
291 291 291 291 290 289 289 289 289 290 289 290 290 291 291 292 292 293 294 295 295 295
290 290 289 289 288 288 288 288 289 289 289 289 289 289 290 291 290 290 291 292 292 294
289 288 288 288 288 288 288 288 288 288 288 288 288 292 291 291 290 290 290 290 291 292
288 287 288 288 287 287 287 287 287 287 287 287 288 291 291 291 290 289 290 290 290 290
287 287 287 287 287 287 287 286 286 287 287 287 287 290 290 291 290 289 290 290 290 289
287 286 286 285 285 286 286 286 286 286 286 286 287 289 289 289 289 289 289 289 290 289
286 285 285 285 285 286 286 285 286 286 287 287 287 289 289 289 288 287 287 288 288 291
285 284 285 285 285 285 285 285 285 285 286 286 287 287 289 289 288 287 286 286 287 288

GFSNIL_sfc_thetae_117.txt.gz
Theta_e
299 297 296 296 297 295 297 296 298 299 299 302 303 305 307 306 307 308 307 306 307 308
294 295 295 295 296 295 295 295 296 297 297 298 299 300 300 302 301 304 305 304 304 304
292 292 292 292 291 292 292 293 293 294 294 295 296 298 297 296 297 296 299 300 300 302
291 291 291 290 290 288 289 290 290 290 290 290 291 293 293 293 294 295 296 296 297 297
289 289 289 288 288 288 288 289 289 289 287 288 288 288 289 289 290 290 290 292 294 294
285 284 283 283 284 284 284 284 285 286 286 286 286 287 288 288 289 289 289 290 290 291
283 283 282 283 283 283 284 283 284 284 285 285 286 287 288 288 287 287 288 290 291 291
283 283 283 282 283 283 283 283 283 283 284 284 285 287 287 288 288 288 288 288 289 290
284 283 283 282 282 282 282 281 282 282 282 282 286 289 291 289 286 287 286 286 287 289
284 284 284 283 283 282 281 281 280 281 282 281 282 290 291 291 286 285 285 286 286 286
283 282 283 282 281 281 282 282 282 282 282 281 283 289 290 291 285 285 285 285 285 284
283 282 281 280 279 280 280 280 281 282 283 283 284 289 290 288 285 284 284 285 285 286
282 281 280 279 279 279 280 281 282 282 282 285 282 287 289 288 285 284 285 286 286 289
281 280 279 279 279 279 279 279 278 279 279 280 282 282 288 288 284 283 284 285 284 285

GFSNIL_sfc_thetae_120.txt.gz
Theta_e
296 294 295 294 294 294 295 296 297 297 297 298 298 299 301 301 303 305 304 304 304 306
292 291 292 292 293 292 293 293 293 294 295 295 297 297 298 298 298 299 300 301 302 303
289 289 289 290 290 289 290 290 290 291 291 291 292 294 295 294 295 295 296 297 297 297
287 288 287 286 285 285 287 287 287 288 289 289 290 291 291 291 291 291 292 294 295 294
285 284 283 282 283 283 283 284 285 285 285 286 287 289 289 288 288 288 287 288 290 290
283 282 281 281 282 282 282 282 283 284 284 284 285 287 286 287 287 287 287 287 288 289
282 282 282 282 282 282 282 281 282 282 283 283 284 285 286 287 286 286 287 288 289 289
283 282 282 282 282 282 282 282 282 282 282 282 284 287 286 286 285 284 284 286 287 288
283 282 282 281 281 281 281 280 281 281 281 281 284 290 291 289 285 285 284 284 285 286
283 282 282 281 281 280 279 280 280 280 281 280 281 290 290 291 285 284 283 284 284 284
283 282 281 280 279 279 279 279 279 280 280 280 283 289 290 290 285 285 284 284 283 282
282 281 280 279 278 278 279 278 279 280 280 280 281 288 289 287 283 283 283 284 284 284
282 280 279 278 278 278 278 280 280 280 279 283 279 286 288 287 282 281 281 282 284 288
281 279 278 278 277 277 277 278 277 278 278 278 280 281 287 287 283 281 281 282 281 283

GFSNIL_sfc_thetae_123.txt.gz
Theta_e
291 292 292 291 291 292 291 293 292 295 295 295 297 298 298 298 299 299 300 301 302 303
288 288 288 287 287 287 288 289 289 290 291 293 295 295 296 296 296 297 297 298 299 300
287 287 286 285 284 284 285 286 286 287 288 289 291 291 292 292 293 293 295 296 296 296
285 285 283 282 282 282 283 283 284 285 286 286 287 289 289 289 289 289 290 292 293 294
284 282 281 281 281 282 281 282 282 283 283 284 285 286 286 286 287 286 286 287 289 289
282 281 280 280 281 281 281 281 281 282 282 282 283 284 285 285 285 285 285 286 286 287
282 281 280 280 281 281 281 280 281 281 282 282 282 284 285 285 284 284 285 286 286 286
282 281 281 281 281 281 280 280 280 281 281 281 283 286 286 285 284 283 283 284 285 286
282 282 281 281 280 280 279 279 280 280 280 280 283 290 291 288 283 283 283 283 284 284
282 282 281 281 280 278 278 278 278 279 279 279 280 290 290 291 284 283 282 283 283 284
282 281 281 280 279 277 278 278 278 278 279 279 282 289 290 289 282 282 282 283 282 282
282 281 280 279 278 277 277 277 277 279 279 278 279 287 289 286 281 281 281 282 282 284
282 280 279 278 277 277 277 279 279 279 279 281 278 285 287 286 281 280 280 281 283 286
281 280 278 277 277 276 277 277 276 278 277 277 278 280 286 287 282 281 280 280 280 281